Вернуться в каталог

CZ-6A DEB

АктивенPO
NORAD 54576·DEBRIS·🇨🇳 China

Запущен Nov 11, 2022 с Taiyuan Satellite Launch Center

Loading…

Ближайшие Пролёты (ближайшие 24 часа)

TLE

СвежийSource: Space-Track

Эпоха: Sep 13, 2026, 17:55 UTC

1 54576U 22151MC  26256.74712422  .00023821  00000-0  20261-2 0  9997
2 54576  98.6184 337.9328 0035748 334.3257  25.6186 14.97333152132365

Отслеживайте CZ-6A DEB в реальном времени с AllMySat

Download on the App Store